FW5669 Weather Reports


Display with metric or nautical units.
time (UTC)temp
F
wind
direction
speed
MPH
gust
MPH
rain 1hr
in
rain 24hr
in
rain mn
in
humidity
%
barometer
mb
20260507194635 72 142 1.0 4.0 0.00 0.00 0.00 71 1020.0
20260507193101 72 193 1.0 4.0 0.00 0.00 0.00 71 1020.1
20260507191601 72 201 1.0 4.0 0.00 0.00 0.00 71 1020.3
20260507190100 72 149 2.0 6.0 0.00 0.00 0.00 70 1020.2
20260507184607 72 177 1.0 4.0 0.00 0.00 0.00 73 1020.4
20260507183100 71 204 1.0 4.0 0.00 0.00 0.00 74 1020.5
20260507181600 71 145 0.0 4.0 0.00 0.00 0.00 74 1020.4
20260507180106 71 262 1.0 4.0 0.00 0.00 0.00 73 1020.3
20260507180002 71 189 2.0 4.0 0.00 0.00 0.00 73 1020.3
20260507174600 71 228 1.0 4.0 0.00 0.00 0.00 72 1020.3
20260507173100 72 188 0.0 2.0 0.00 0.00 0.00 66 1020.2
20260507171604 71 177 0.0 4.0 0.00 0.00 0.00 65 1020.3
20260507171500 71 177 1.0 4.0 0.00 0.00 0.00 65 1020.3
20260507170109 71 29 1.0 0.0 4.73 0.00 0.00 68 1020.4
20260507164607 70 48 1.0 3.0 0.00 0.00 0.00 68 1020.4
20260507163107 70 47 1.0 3.0 0.00 0.00 0.00 68 1020.5
20260507161600 69 187 1.0 4.0 0.00 0.00 0.00 70 1020.6
20260507160001 69 321 1.0 3.0 0.00 0.00 0.00 71 1020.6
20260507154607 67 66 0.0 3.0 0.00 0.00 0.00 75 1020.6
20260507154502 67 46 0.0 3.0 0.00 0.00 0.00 76 1020.6
20260507153059 66 73 0.0 2.0 0.00 0.00 0.00 77 1020.7
20260507151600 64 57 0.0 2.0 0.00 0.00 0.00 83 1020.6
20260507150100 62 42 0.0 2.0 0.00 0.00 0.00 85 1020.8
20260507150002 62 43 0.0 2.0 0.00 0.00 0.00 85 1020.7
20260507144603 60 19 0.0 1.0 0.00 0.00 0.00 90 1020.7
20260507143111 58 32 0.0 1.0 0.00 0.00 0.00 94 1020.6
20260507141559 55 6 0.0 1.0 0.00 0.00 0.00 96 1020.4
20260507140100 55 30 0.0 1.0 0.00 0.00 0.00 96 1020.3
20260507134600 54 16 0.0 1.0 0.00 0.00 0.00 95 1020.3
20260507133108 54 2 0.0 2.0 0.00 0.00 0.00 95 1020.1
20260507131612 54 41 0.0 2.0 0.00 0.00 0.00 96 1020.2
20260507130059 53 30 0.0 2.0 0.00 0.00 0.00 95 1020.0
20260507124603 53 4 0.0 1.0 0.00 0.00 0.00 96 1020.0
20260507123059 53 54 0.0 2.0 0.00 0.00 0.00 96 1019.9
20260507121559 53 55 0.0 1.0 0.00 0.00 0.00 96 1019.8
20260507120059 52 39 0.0 0.0 0.00 0.00 0.00 95 1020.0
20260507120001 52 39 0.0 0.0 0.00 0.00 0.00 95 1020.0
20260507114607 52 48 0.0 0.0 0.00 0.00 0.00 95 1020.0
20260507114500 52 48 0.0 0.0 0.00 0.00 0.00 95 1020.0
20260507113103 52 41 0.0 0.0 0.00 0.00 0.00 95 1020.0
20260507111602 52 41 0.0 0.0 0.00 0.00 0.00 95 1020.0
20260507111500 52 41 0.0 0.0 0.00 0.00 0.00 95 1020.0
20260507110002 52 41 0.0 1.0 0.00 0.00 0.00 95 1020.0
20260507104600 52 58 0.0 0.0 0.00 0.00 0.00 95 1020.0
20260507103059 52 58 0.0 0.0 0.00 0.00 0.00 95 1019.9
20260507101600 52 58 0.0 0.0 0.00 0.00 0.00 95 1020.1
20260507100100 52 58 0.0 0.0 0.00 0.00 0.00 94 1020.0
20260507100001 52 58 0.0 0.0 0.00 0.00 0.00 94 1020.0
20260507094601 52 58 0.0 0.0 0.00 0.00 0.00 94 1020.1
20260507093113 52 58 0.0 0.0 0.00 0.00 0.00 94 1020.3
20260507091600 53 58 0.0 0.0 0.00 0.00 0.00 94 1020.3
20260507090101 53 58 0.0 0.0 0.00 0.00 0.00 94 1020.3
20260507090002 53 58 0.0 0.0 0.00 0.00 0.00 94 1020.4
20260507084602 53 58 0.0 0.0 0.00 0.00 0.00 94 1020.5
20260507083102 53 58 0.0 0.0 0.00 0.00 0.00 94 1020.6
20260507081600 53 58 0.0 0.0 0.00 0.00 0.00 94 1020.6
20260507081501 53 58 0.0 0.0 0.00 0.00 0.00 94 1020.6
20260507080115 54 58 0.0 0.0 0.00 0.00 0.00 94 1020.6
20260507080002 54 58 0.0 0.0 0.00 0.00 0.00 94 1020.6
20260507074502 53 58 0.0 0.0 0.00 0.00 0.00 94 1020.5
20260507073001 53 58 0.0 0.0 0.00 0.00 0.00 93 1020.6
20260507071501 54 58 0.0 1.0 0.00 0.00 0.00 93 1020.5
20260507070010 54 58 0.0 1.0 0.00 0.00 0.00 92 1020.7
20260507064501 55 58 0.0 1.0 0.00 0.00 0.00 93 1020.6
20260507063000 55 62 0.0 1.0 0.00 0.00 0.00 92 1020.5
20260507061502 55 62 0.0 1.0 0.00 0.00 0.00 93 1020.6
20260507060002 56 62 0.0 1.0 0.00 0.00 0.00 92 1020.5
20260507054502 56 62 0.0 0.0 0.00 0.00 0.00 92 1020.5
20260507053003 56 62 0.0 1.0 0.00 0.00 0.00 91 1020.5
20260507051501 57 62 0.0 1.0 0.00 0.00 0.00 91 1020.5
20260507050002 57 62 0.0 1.0 0.00 0.00 0.00 90 1020.4
20260507044500 58 62 0.0 1.0 0.00 0.00 0.00 90 1020.4
20260507043003 58 62 0.0 0.0 0.00 0.00 0.00 89 1020.1
20260507041501 59 62 0.0 0.0 0.00 0.00 0.00 88 1019.8
20260507040003 59 66 0.0 0.0 0.00 0.00 0.00 88 1019.8
20260507034504 60 113 0.0 1.0 0.00 0.00 0.00 87 1019.7
20260507033003 61 159 0.0 1.0 0.00 0.00 0.00 85 1019.6
20260507031501 62 159 0.0 1.0 0.00 0.00 0.00 83 1019.5
20260507030003 63 159 0.0 1.0 0.00 0.00 0.00 80 1019.5
20260507024502 64 159 0.0 1.0 0.00 0.00 0.00 78 1019.4
20260507023001 65 159 0.0 0.0 0.00 0.00 0.00 75 1019.4
20260507021502 66 159 0.0 2.0 0.00 0.00 0.00 73 1019.3
20260507020006 66 175 0.0 2.0 0.00 0.00 0.00 73 1019.3
20260507014501 67 198 0.0 2.0 0.00 0.00 0.00 72 1019.4
20260507013000 67 161 1.0 2.0 0.00 0.00 0.00 71 1019.3
20260507011504 67 177 0.0 3.0 0.00 0.00 0.00 72 1019.5
20260507010004 67 191 0.0 2.0 0.00 0.00 0.00 71 1019.5
20260507004615 67 212 0.0 3.0 0.00 0.00 0.00 70 1019.5
20260507003102 67 338 1.0 3.0 0.00 0.00 0.00 69 1019.6
20260507001602 67 141 0.0 3.0 0.00 0.00 0.00 70 1019.5
20260507000002 67 316 1.0 4.0 0.00 0.00 0.00 70 1019.5
20260506234500 67 258 1.0 2.0 0.00 0.00 0.00 70 1019.6
20260506233101 67 204 0.0 3.0 0.00 0.00 0.00 71 1019.6
20260506231603 67 198 1.0 4.0 0.00 0.00 0.00 71 1019.8
20260506230107 66 249 1.0 3.0 0.00 0.00 0.00 71 1020.0
20260506230002 66 302 1.0 4.0 0.00 0.00 0.00 71 1020.0
20260506224601 67 182 1.0 4.0 0.00 0.00 0.00 71 1020.2
20260506223110 66 151 1.0 4.0 0.00 0.00 0.00 73 1020.5
20260506223000 66 127 1.0 4.0 0.00 0.00 0.00 73 1020.5
20260506221502 65 184 1.0 4.0 0.00 0.00 0.00 75 1020.8
20260506220002 64 236 0.0 3.0 0.00 0.00 0.00 77 1021.1
20260506214605 63 229 0.0 3.0 0.00 0.00 0.00 77 1021.3
20260506214501 63 229 1.0 3.0 0.00 0.00 0.00 77 1021.4
20260506213101 63 166 0.0 3.0 0.00 0.00 0.00 76 1021.4
20260506211501 62 224 0.0 3.0 0.00 0.00 0.00 77 1021.5
20260506210005 62 231 1.0 2.0 0.00 0.00 0.00 78 1021.7
20260506204601 62 218 0.0 2.0 0.00 0.00 0.00 79 1021.8
20260506203001 62 273 0.0 2.0 0.00 0.00 0.00 80 1021.8
20260506201600 61 243 0.0 2.0 0.00 0.00 0.00 80 1022.0
20260506201502 61 243 0.0 2.0 0.00 0.00 0.00 80 1021.9
20260506200107 61 283 0.0 2.0 0.00 0.00 0.00 81 1022.0